{"data":{"norad_id":56837,"epoch":"2026-09-20T14:41:05.091072Z","epoch_age_seconds":107917,"freshness":"FRESH","line1":"1 56837U 23079Q   26263.61186448  .00001367  00000+0  59209-4 0  9992","line2":"2 56837  43.0064  85.8322 0001403 270.8396  89.2295 15.27582132182708","mean_motion":15.27582132,"eccentricity":0.0001403,"inclination_deg":43.0064,"raan_deg":85.8322,"arg_perigee_deg":270.8396,"mean_anomaly_deg":89.2295,"bstar":5.9209e-5,"rev_number":18270,"period_min":94.266617148413,"perigee_km":482.08008855849,"apogee_km":484.0053355857,"semimajor_km":6861.1797120721,"source":"CELESTRAK","updated_at":"2026-09-21T09:00:33.517251Z"}}